Date String (YYYY-MM-DD hh:mm:ss) UTC,Instrument flags,Ambient pressure (hPa),Sample flow (lpm),Bypass flow (lpm),Sample temperature (°C),Ambient temperature (°C),ASC tube jacket temperature (°C),LED temperature (°C),Box temperature (°C),Sample RH (%),Span deviation,Mass concentration (μg/m³),Mass concentration (μg/m³),Mass concentration (μg/m³)
DateTimeUTC,F1_M11,P_M11,Q1_M11,Q2_M11,T1_M11,T2_M11,T3_M11,T4_M11,T5_M11,U1_M11,ZSPAN_M11,X0_M11,X2_M11,X1_M11
2022-07-17 08:00:00,,0831.0,5.00,0.00,29.8,28.8,00.0,38.5,31.8,30.8,0000.0,0015.76,0006.18,0004.89
2022-07-17 08:01:00,,0831.0,5.00,0.00,29.8,28.4,00.0,38.5,31.7,30.8,0000.0,0015.38,0006.12,0004.88
2022-07-17 08:02:00,,0831.0,5.00,0.00,29.8,27.7,00.0,38.4,31.7,30.8,0000.0,0015.28,0006.08,0004.88
2022-07-17 08:03:00,,0831.0,5.00,0.00,29.8,27.4,00.0,38.4,31.5,31.0,0000.0,0015.30,0006.10,0004.88
2022-07-17 08:04:00,,0831.0,5.01,0.00,29.7,27.4,00.0,38.4,31.4,31.2,0000.0,0015.42,0006.04,0004.86
2022-07-17 08:05:00,,0831.1,5.00,0.00,29.6,27.5,00.0,38.4,31.4,31.4,0000.0,0015.06,0006.01,0004.84
2022-07-17 08:06:00,,0831.0,4.98,0.00,29.6,27.6,00.0,38.4,31.4,31.5,0000.0,0014.76,0005.94,0004.81
2022-07-17 08:07:00,,0831.0,5.01,0.00,29.6,27.7,00.0,38.4,31.4,31.4,0000.0,0014.36,0005.92,0004.78
2022-07-17 08:08:00,,0831.0,5.00,0.00,29.6,27.9,00.0,38.4,31.4,31.3,0000.0,0013.72,0005.86,0004.76
2022-07-17 08:09:00,,0830.9,4.99,0.00,29.6,28.0,00.0,38.4,31.4,31.2,0000.0,0012.55,0005.85,0004.75
2022-07-17 08:10:00,,0830.9,5.00,0.00,29.6,28.1,00.0,38.4,31.5,31.2,0000.0,0012.36,0005.84,0004.72
2022-07-17 08:11:00,,0830.9,5.01,0.00,29.6,28.2,00.0,38.4,31.5,31.2,0000.0,0012.28,0005.81,0004.69
2022-07-17 08:12:00,,0830.9,5.00,0.00,29.6,28.3,00.0,38.4,31.5,31.2,0000.0,0012.52,0005.78,0004.66
2022-07-17 08:13:00,,0830.9,4.99,0.00,29.7,28.4,00.0,38.4,31.6,31.2,0000.0,0012.63,0005.76,0004.65
2022-07-17 08:14:00,,0830.9,5.00,0.00,29.7,28.5,00.0,38.4,31.6,31.2,0000.0,0013.08,0005.73,0004.63
2022-07-17 08:15:00,,0830.9,5.00,0.00,29.7,28.6,00.0,38.4,31.7,31.2,0000.0,0012.98,0005.75,0004.65
2022-07-17 08:16:00,,0830.9,5.00,0.00,29.7,28.6,00.0,38.5,31.7,31.1,0000.0,0013.32,0005.75,0004.65
2022-07-17 08:17:00,,0830.9,5.00,0.00,29.7,28.7,00.0,38.5,31.7,31.1,0000.0,0013.35,0005.81,0004.66
2022-07-17 08:18:00,,0830.9,4.99,0.00,29.8,28.7,00.0,38.5,31.7,31.0,0000.0,0013.46,0005.83,0004.67
2022-07-17 08:19:00,,0830.9,4.99,0.00,29.8,28.8,00.0,38.5,31.7,30.9,0000.0,0012.93,0005.82,0004.68
2022-07-17 08:20:00,,0830.9,5.00,0.00,29.8,28.5,00.0,38.5,31.7,30.8,0000.0,0012.65,0005.83,0004.68
2022-07-17 08:21:00,,0830.9,5.00,0.00,29.8,27.8,00.0,38.4,31.7,30.8,0000.0,0012.75,0005.85,0004.70
2022-07-17 08:22:00,,0830.9,5.01,0.00,29.8,27.4,00.0,38.4,31.6,30.7,0000.0,0012.98,0005.92,0004.71
2022-07-17 08:23:00,,0830.9,5.00,0.00,29.7,27.3,00.0,38.4,31.4,30.9,0000.0,0013.03,0005.93,0004.72
2022-07-17 08:24:00,,0830.9,4.99,0.00,29.6,27.4,00.0,38.4,31.3,31.0,0000.0,0013.33,0005.94,0004.71
2022-07-17 08:25:00,,0831.0,4.99,0.00,29.6,27.6,00.0,38.4,31.3,31.1,0000.0,0012.71,0005.93,0004.71
2022-07-17 08:26:00,,0830.9,5.01,0.00,29.6,27.7,00.0,38.4,31.4,31.2,0000.0,0013.01,0005.86,0004.69
2022-07-17 08:27:00,,0830.9,5.01,0.00,29.6,27.8,00.0,38.4,31.4,31.2,0000.0,0012.83,0005.85,0004.70
2022-07-17 08:28:00,,0830.9,4.99,0.00,29.6,28.0,00.0,38.4,31.4,31.1,0000.0,0013.15,0005.84,0004.70
2022-07-17 08:29:00,,0830.9,4.99,0.00,29.6,28.1,00.0,38.4,31.4,31.1,0000.0,0013.15,0005.82,0004.70
2022-07-17 08:30:00,,0830.9,5.01,0.00,29.6,28.2,00.0,38.4,31.5,31.1,0000.0,0014.41,0005.83,0004.70
2022-07-17 08:31:00,,0830.9,5.00,0.00,29.6,28.3,00.0,38.4,31.5,31.0,0000.0,0014.34,0005.86,0004.70
2022-07-17 08:32:00,,0830.9,5.00,0.00,29.6,28.4,00.0,38.4,31.5,30.9,0000.0,0013.96,0005.88,0004.68
2022-07-17 08:33:00,,0830.9,5.00,0.00,29.7,28.5,00.0,38.4,31.6,30.8,0000.0,0013.94,0005.79,0004.67
2022-07-17 08:34:00,,0830.9,4.99,0.00,29.7,28.5,00.0,38.4,31.6,30.7,0000.0,0014.47,0005.80,0004.67
2022-07-17 08:35:00,,0830.9,5.02,0.00,29.7,28.6,00.0,38.4,31.7,30.5,0000.0,0014.53,0005.79,0004.68
2022-07-17 08:36:00,,0830.9,5.00,0.00,29.7,28.7,00.0,38.5,31.7,30.4,0000.0,0014.81,0005.80,0004.69
2022-07-17 08:37:00,,0830.9,5.00,0.00,29.8,28.7,00.0,38.5,31.7,30.3,0000.0,0014.22,0005.80,0004.71
2022-07-17 08:38:00,,0830.8,5.00,0.00,29.8,28.8,00.0,38.5,31.8,30.2,0000.0,0014.12,0005.81,0004.73
2022-07-17 08:39:00,,0830.8,5.01,0.00,29.8,28.8,00.0,38.5,31.8,30.2,0000.0,0014.65,0005.78,0004.74
2022-07-17 08:40:00,,0830.7,4.99,0.00,29.8,28.7,00.0,38.5,31.8,30.0,0000.0,0014.69,0005.81,0004.76
2022-07-17 08:41:00,,0830.8,5.00,0.00,29.9,28.0,00.0,38.5,31.7,29.7,0000.0,0013.55,0005.83,0004.79
2022-07-17 08:42:00,,0830.7,5.00,0.00,29.8,27.5,00.0,38.4,31.6,29.7,0000.0,0013.60,0005.80,0004.81
2022-07-17 08:43:00,,0830.8,5.01,0.00,29.7,27.4,00.0,38.4,31.5,29.8,0000.0,0014.32,0005.76,0004.85
2022-07-17 08:44:00,,0830.8,4.99,0.00,29.7,27.5,00.0,38.4,31.4,29.9,0000.0,0014.30,0005.79,0004.88
2022-07-17 08:45:00,,0830.8,5.00,0.00,29.6,27.6,00.0,38.4,31.4,30.1,0000.0,0013.42,0005.82,0004.91
2022-07-17 08:46:00,,0830.8,5.00,0.00,29.6,27.7,00.0,38.4,31.4,30.3,0000.0,0013.41,0005.87,0004.93
2022-07-17 08:47:00,,0830.8,5.00,0.00,29.6,27.9,00.0,38.4,31.4,30.3,0000.0,0013.64,0005.94,0004.93
2022-07-17 08:48:00,,0830.8,4.99,0.00,29.6,28.0,00.0,38.4,31.4,30.2,0000.0,0014.07,0005.99,0004.94
2022-07-17 08:49:00,,0830.8,5.01,0.00,29.6,28.1,00.0,38.4,31.5,30.3,0000.0,0014.33,0005.98,0004.95
2022-07-17 08:50:00,,0830.7,4.99,0.00,29.6,28.2,00.0,38.4,31.5,30.0,0000.0,0013.45,0005.98,0004.96
2022-07-17 08:51:00,,0830.7,5.01,0.00,29.6,28.3,00.0,38.4,31.5,30.0,0000.0,0013.43,0005.97,0004.97
2022-07-17 08:52:00,,0830.7,4.99,0.00,29.7,28.4,00.0,38.4,31.6,29.9,0000.0,0013.63,0005.99,0004.99
2022-07-17 08:53:00,,0830.7,5.01,0.00,29.7,28.5,00.0,38.4,31.6,29.7,0000.0,0013.28,0006.02,0005.02
2022-07-17 08:54:00,,0830.7,5.00,0.00,29.7,28.5,00.0,38.4,31.6,29.8,0000.0,0012.57,0006.05,0005.03
2022-07-17 08:55:00,,0830.8,5.00,0.00,29.7,28.6,00.0,38.5,31.7,29.8,0000.0,0013.04,0006.11,0005.05
2022-07-17 08:56:00,,0830.8,5.00,0.00,29.8,28.7,00.0,38.5,31.7,29.8,0000.0,0012.88,0006.11,0005.07
2022-07-17 08:57:00,,0830.8,5.01,0.00,29.8,28.7,00.0,38.5,31.7,29.8,0000.0,0013.10,0006.13,0005.08
2022-07-17 08:58:00,,0830.8,4.99,0.00,29.8,28.8,00.0,38.5,31.7,29.8,0000.0,0012.81,0006.08,0005.10
2022-07-17 08:59:00,,0830.8,5.00,0.00,29.8,28.8,00.0,38.5,31.8,29.8,0000.0,0012.62,0006.09,0005.12
